OSCAR 7 (AO-7) 1 07530U 74089B 26151.05620411 -.00000032 00000+0 90187-4 0 9991 2 07530 101.9903 164.1241 0012397 162.1931 213.8979 12.53697837358370 PHASE 3B (AO-10) 1 14129U 83058B 26150.40300918 .00000238 00000+0 00000+0 0 9991 2 14129 25.9007 222.5132 6016935 110.7746 321.0358 2.05869321295122 UOSAT 2 (UO-11) 1 14781U 84021B 26150.90410257 .00001530 00000+0 16143-3 0 9994 2 14781 97.8048 116.6736 0006235 234.7016 125.3619 14.90736546254551 LUSAT (LO-19) 1 20442U 90005G 26151.01883201 .00000156 00000+0 72635-4 0 9992 2 20442 98.8855 172.3508 0010461 255.2701 104.7323 14.34117396899934 EYESAT A (AO-27) 1 22825U 93061C 26151.14819103 .00000143 00000+0 71245-4 0 9990 2 22825 98.6884 218.5672 0009080 144.5024 215.6764 14.30937162704561 ITAMSAT (IO-26) 1 22826U 93061D 26151.13268272 .00000133 00000+0 67102-4 0 9991 2 22826 98.6832 218.4673 0009849 129.5042 230.7013 14.31363422704873 RADIO ROSTO (RS15) 1 23439U 94085A 26151.17636653 -.00000045 00000+0 -64367-4 0 9999 2 23439 64.8186 330.7283 0155447 7.0155 353.2896 11.27583684293988 JAS-2 (FO-29) 1 24278U 96046B 26151.01021178 -.00000016 00000+0 16725-4 0 9995 2 24278 98.5255 2.2342 0350519 140.8980 221.8063 13.53273521470842 TECHSAT 1B (GO-32) 1 25397U 98043D 26150.92507885 .00000075 00000+0 52507-4 0 9992 2 25397 99.0064 143.2489 0000217 259.0930 101.0223 14.24424695448876 ISS (ZARYA) 1 25544U 98067A 26151.16242250 .00012606 00000+0 23226-3 0 9999 2 25544 51.6337 24.3812 0007232 116.8819 243.2910 15.49515140569113 PCSAT (NO-44) 1 26931U 01043C 26150.83762067 .00000170 00000+0 94367-4 0 9992 2 26931 67.0511 289.1447 0006135 264.0006 96.0397 14.31948970287963 SAUDISAT 1C (SO-50) 1 27607U 02058C 26151.16213644 .00001361 00000+0 17722-3 0 9991 2 27607 64.5508 181.6592 0075553 265.5834 93.6637 14.83007588261931 CUTE-1 (CO-55) 1 27844U 03031E 26150.96684404 .00000361 00000+0 17519-3 0 9992 2 27844 98.6737 159.7425 0008531 230.9226 129.1194 14.24324114189226 CUBESAT XI-IV (CO-57) 1 27848U 03031J 26150.94667375 .00000309 00000+0 15472-3 0 9990 2 27848 98.6767 159.4488 0008266 251.8041 108.2238 14.23610767188925 MOZHAETS 4 (RS22) 1 27939U 03042A 26151.23379756 .00001433 00000+0 22909-3 0 9991 2 27939 98.3463 335.1145 0010586 328.7469 86.0405 14.73435137213058 CUBESAT XI-V 1 28895U 05043F 26150.87216211 .00001764 00000+0 28541-3 0 9996 2 28895 98.2966 306.1330 0012811 259.3125 100.6639 14.72579470 99201 CUTE-1.7+APD II (CO-65) 1 32785U 08021C 26151.14483698 .00007706 00000+0 48718-3 0 9994 2 32785 97.8269 132.2122 0010823 88.0948 272.1520 15.09275046982627 SEEDS II (CO-66) 1 32791U 08021J 26150.96247742 .00022458 00000+0 72582-3 0 9995 2 32791 97.7510 148.0466 0003508 48.1171 312.0368 15.32101389984658 YUBILEINY (RS30) 1 32953U 08025A 26151.19807278 .00000030 00000+0 14250-3 0 9991 2 32953 82.5056 6.0104 0019578 351.6637 8.4115 12.43178582817581 KKS-1 (KISEKI) 1 33499U 09002H 26151.18740584 .00002207 00000+0 27776-3 0 9993 2 33499 98.1197 73.3607 0007721 356.8848 3.2316 14.83075973933670 SWISSCUBE 1 35932U 09051B 26151.20095428 .00001436 00000+0 29333-3 0 9998 2 35932 98.4048 58.7929 0005393 267.1269 92.9314 14.62446012886673 BEESAT-1 1 35933U 09051C 26151.20158214 .00001204 00000+0 25160-3 0 9999 2 35933 98.3978 58.4644 0003975 286.4647 73.6116 14.61690328886704 ITUPSAT1 1 35935U 09051E 26151.17761534 .00001102 00000+0 23757-3 0 9999 2 35935 98.4063 57.6499 0006289 297.7482 62.3080 14.60412858886258 XIWANG-1 (HOPE-1) 1 36122U 09072B 26151.14407956 .00000388 00000+0 11311-2 0 9990 2 36122 100.4015 105.2492 0006820 274.4373 85.5961 13.16440504790767 O/OREOS (USA 219) 1 37224U 10062C 26150.98451245 .00003065 00000+0 29525-3 0 9998 2 37224 71.9694 119.3030 0012389 100.8793 259.3772 14.93660792114079 JUGNU 1 37839U 11058B 26151.08996943 .00000461 00000+0 10097-3 0 9998 2 37839 19.9616 52.2936 0018509 247.2015 250.5642 14.13771462756609 SRMSAT 1 37841U 11058D 26151.18608431 .00000418 00000+0 83177-4 0 9996 2 37841 19.9701 162.3745 0011828 18.0577 52.0290 14.11571814755411 STRAND-1 1 39090U 13009E 26151.06823789 .00000352 00000+0 13264-3 0 9990 2 39090 98.3916 331.7246 0007420 284.3249 75.7114 14.37152184694606 ZACUBE-1 (TSHEPISOSAT) 1 39417U 13066B 26150.87627542 .00005765 00000+0 44830-3 0 9999 2 39417 97.8106 113.1193 0039999 309.1134 50.6535 15.01053962678137 GOMX-1 1 39430U 13066Q 26151.09403494 .00003270 00000+0 49320-3 0 9995 2 39430 97.6492 352.6363 0129818 131.9134 229.3230 14.69387472667402 CUBEBUG-2 (LO-74) 1 39440U 13066AA 26150.84690825 .00005204 00000+0 48184-3 0 9990 2 39440 97.8898 99.7552 0059314 85.0571 275.7416 14.93605945674405 FUNCUBE-1 (AO-73) 1 39444U 13066AE 26150.88638683 .00008594 00000+0 53648-3 0 9998 2 39444 97.8260 121.9749 0034564 262.2658 97.4645 15.09250694677055 UWE-3 1 39446U 13066AG 26151.10377995 .00006490 00000+0 55682-3 0 9995 2 39446 97.8703 107.0656 0049852 19.0061 341.3006 14.96874326675029 UNISAT-6 1 40012U 14033C 26150.85343088 .00004340 00000+0 46791-3 0 9991 2 40012 97.7857 303.8739 0046356 124.7902 235.7691 14.88137208643585 DUCHIFAT-1 1 40021U 14033M 26151.11879267 .00105799 00000+0 12413-2 0 9997 2 40021 98.0483 207.9278 0005537 145.9821 214.1790 15.61122359653087 QB50P1 1 40025U 14033R 26151.01294073 .00009928 00000+0 49191-3 0 9997 2 40025 98.0963 160.9583 0006938 287.2998 72.7475 15.17969340650425 LILACSAT-2 1 40908U 15049K 26151.17705458 .00021926 00000+0 38085-3 0 9998 2 40908 97.4660 187.3779 0005612 327.2477 32.8426 15.50835390593116 FOX-1A (AO-85) 1 40967U 15058D 26151.11386777 .00004144 00000+0 37215-3 0 9993 2 40967 64.7760 332.0388 0129645 63.2989 298.1326 14.90868828111029 CAS-2T & KS-1Q 1 41847U 16066G 26151.20192091 .00002053 00000+0 29589-3 0 9997 2 41847 98.3824 227.1314 0342034 180.9160 179.1448 14.44635251502344 RADFXSAT (FOX-1B) 1 43017U 17073E 26150.61112050 .00012250 00000+0 53366-3 0 9998 2 43017 97.4731 18.1891 0152418 29.9783 331.0066 15.12376389462731 DIWATA-2B 1 43678U 18084H 26151.16401964 .00002670 00000+0 21767-3 0 9995 2 43678 98.1144 346.6368 0011766 227.2188 132.8046 15.00362000413665 ES'HAIL 2 1 43700U 18090A 26151.14992332 .00000157 00000+0 00000+0 0 9991 2 43700 0.0184 321.4927 0001809 133.2486 233.6778 1.00270769 27504 FOX-1CLIFF (AO-95) 1 43770U 18099N 26151.10014402 .00015337 00000+0 59239-3 0 9994 2 43770 97.4394 211.4133 0009722 56.5190 303.6976 15.26307587410610 ITASAT 1 43786U 18099AE 26151.09124675 .00009676 00000+0 46674-3 0 9991 2 43786 97.4038 202.9458 0013796 57.5847 302.6720 15.18815267410316 JY1SAT (JO-97) 1 43803U 18099AX 26151.12872067 .00022124 00000+0 69380-3 0 9992 2 43803 97.4138 213.9101 0004591 345.1738 14.9369 15.33059912411016 UWE-4 1 43880U 18111E 26150.34581630 .00045687 00000+0 96821-3 0 9997 2 43880 97.5862 77.9309 0008919 44.6920 315.5045 15.44911436408024 TIANYAN 01 1 44881U 19093C 26151.14911266 .00001264 00000+0 14874-3 0 9991 2 44881 97.7537 223.7962 0014532 138.6500 221.5819 14.86487552348883 RS-44 & BREEZE-KM R/B 1 44909U 19096E 26151.03977029 .00000024 00000+0 50542-4 0 9998 2 44909 82.5221 351.1021 0217386 184.2005 175.7279 12.79748556300159 SALSAT 1 46495U 20068K 26151.00675646 .00010006 00000+0 35198-3 0 9998 2 46495 97.8845 153.0293 0009884 14.0820 346.0693 15.29523137312733 XW-3 (CAS-9) 1 50466U 21131B 26151.18565132 .00000756 00000+0 24717-3 0 9996 2 50466 98.4975 243.6678 0004946 137.3151 222.8423 14.41340343232664 GREENCUBE (IO-117) 1 53109U 22080E 26150.75301981 -.00000003 00000+0 00000+0 0 9990 2 53109 70.1436 304.3099 0008869 293.7609 66.2120 6.42583271 90943 UMKA 1 (RS40S) 1 57172U 23091G 26151.18318036 .00009740 00000+0 44630-3 0 9991 2 57172 97.5059 209.9474 0013157 172.1974 187.9469 15.20603274161420 CUBESX-HSE 3 (RS42S) 1 57178U 23091N 26151.18045492 .00021031 00000+0 70772-3 0 9993 2 57178 97.5102 216.5579 0011895 147.3364 212.8615 15.30745596161829 MONITOR-3 (RS58S) 1 57180U 23091Q 26151.16791860 .00014337 00000+0 53459-3 0 9995 2 57180 97.5095 214.4927 0012650 153.9438 206.2440 15.27463836161690 MONITOR-4 (RS57S) 1 57182U 23091S 26151.21350816 .00015904 00000+0 59079-3 0 9990 2 57182 97.5087 214.5091 0012612 154.1658 206.0213 15.27564778161706 MONITOR-2 (RS39S) 1 57184U 23091U 26151.18331860 .00008085 00000+0 39183-3 0 9992 2 57184 97.5082 209.5772 0011732 164.5208 195.6388 15.18736223161376 SVYATOBOR 1 (RS60S) 1 57187U 23091X 26151.21225587 .00013912 00000+0 53778-3 0 9998 2 57187 97.5098 214.9386 0010521 145.8550 214.3366 15.26298457161729 VIZARD-METEO (RS38S) 1 57189U 23091Z 26151.14162525 .00023228 00000+0 67518-3 0 9992 2 57189 97.5102 220.2921 0008739 128.2354 231.9677 15.35429286162072 POLYTECH-UNIVERSE 3 (R*) 1 57191U 23091AB 26151.14687597 .00006273 00000+0 30270-3 0 9992 2 57191 97.5058 209.0459 0015568 182.7767 177.3383 15.18932782161366 UTMN 2 (RS27S) 1 57203U 23091AP 26151.20741012 .00020010 00000+0 65658-3 0 9999 2 57203 97.5097 218.1981 0009384 134.1566 226.0448 15.31597762161949 KUZGTU 1 (RS47S) 1 57217U 23091AV 26151.15672963 .00015680 00000+0 55048-3 0 9995 2 57217 97.5075 215.4681 0012014 150.7824 209.4090 15.29429277161773 SONATE-2 1 59112U 24043Q 26150.92611644 .00042882 00000+0 58541-3 0 9997 2 59112 97.5514 300.2829 0006083 256.8662 103.1914 15.57348280125209 MESAT1 1 60209U 24125G 26151.13243830 .00065791 00000+0 77122-3 0 9999 2 60209 97.2313 8.2486 0008114 275.1661 84.8670 15.61271556106902 OOV-CUBE (TUBSAT-30) 1 60240U 24128F 26150.95450000 .00003650 00000+0 28144-3 0 9991 2 60240 61.9960 285.6578 0046812 129.9530 230.5688 15.02682084103525 COLIBRI-S (RS67S) 1 61746U 24199M 26151.18332325 .00032833 00000+0 65059-3 0 9997 2 61746 97.3017 24.8906 0007716 355.6320 4.4861 15.46958472134784 HORS 3 (RS81S) 1 61753U 24199U 26151.09387843 .00043914 00000+0 68496-3 0 9990 2 61753 97.3004 26.6085 0005695 6.9017 353.2314 15.53705599134909 HORS 4 (RS82S) 1 61754U 24199V 26151.16799975 .00069207 00000+0 91842-3 0 9996 2 61754 97.2949 27.7810 0004482 2.0627 358.0647 15.58005553134991 ARCTICSAT 1 (RS74S) 1 61762U 24199AD 26151.09922438 .00556552 13074-3 13750-2 0 9993 2 61762 97.2872 33.9187 0003841 187.7461 172.3756 15.95967284135387 SIT-2086 1 61764U 24199AF 26151.18029110 .00050728 00000+0 84535-3 0 9995 2 61764 97.2966 27.2315 0005580 341.8087 18.2966 15.51830652131793 HYPERVIEW 1G (RS66S) 1 61772U 24199AP 26151.14774416 .00167759 00000+0 12937-2 0 9995 2 61772 97.2911 30.0607 0003171 357.1268 2.9976 15.71444547131992 ALTAIR (RS65S) 1 61779U 24199AW 26151.18332897 .00010983 00000+0 30805-3 0 9990 2 61779 97.3050 20.6494 0013048 16.0195 344.1459 15.36664766134502 ASRTU-1 (AO-123) 1 61781U 24199AY 26151.15680536 .00011304 00000+0 32978-3 0 9997 2 61781 97.3021 19.9830 0014237 17.5290 342.6442 15.35407604131317 SAMSAT-IONOSPHERE (RS7*) 1 61784U 24199BB 26151.15529644 .00066868 00000+0 95384-3 0 9997 2 61784 97.2972 26.6602 0007607 359.1418 0.9822 15.56043798134914 RTU MIREA 1 (RS51S) 1 61785U 24199BC 26151.08716723 .00066753 00000+0 84940-3 0 9995 2 61785 97.2964 27.3392 0007101 355.9764 4.1434 15.59118310131803 TEVEL2-4 1 63213U 25052D 26149.65981025 .00024157 00000+0 73793-3 0 9997 2 63213 97.3939 46.0285 0003623 137.7072 222.4450 15.33880799 67277 TEVEL2-5 1 63214U 25052E 26150.65692063 .00022929 00000+0 70316-3 0 9994 2 63214 97.3930 46.9794 0003667 137.7986 222.3539 15.33767956 67428 TEVEL2-6 1 63215U 25052F 26151.19076714 .00028483 00000+0 87241-3 0 9990 2 63215 97.3932 47.4976 0003863 137.0029 223.1516 15.33761297 67503 TEVEL2-1 1 63217U 25052H 26150.62664994 .00021973 00000+0 68572-3 0 9995 2 63217 97.3904 46.5784 0003506 146.2800 213.8666 15.33220237 67409 TEVEL2-3 1 63218U 25052J 26151.20925682 .00026899 00000+0 83618-3 0 9995 2 63218 97.3904 47.1806 0003524 147.0869 213.0593 15.33304006 67493 TEVEL2-2 1 63219U 25052K 26151.14916382 .00026902 00000+0 83748-3 0 9995 2 63219 97.3903 47.1026 0003486 147.9198 212.2257 15.33256964 67484 TEVEL2-9 1 63237U 25052AD 26151.17018926 .00025049 00000+0 82811-3 0 9996 2 63237 97.3967 46.5351 0005906 182.2368 177.8847 15.31333016 67425 TEVEL2-7 1 63238U 25052AE 26150.68505253 .00019186 00000+0 64141-3 0 9997 2 63238 97.3972 45.9743 0005936 184.7576 175.3610 15.31025705 67346 TEVEL2-8 1 63239U 25052AF 26150.69311718 .00019488 00000+0 65178-3 0 9996 2 63239 97.3969 45.9607 0005920 184.7609 175.3577 15.31009313 67341 INNOSAT 16 (RS92S7) 1 64878U 25155C 26151.14276730 .00007661 00000+0 30719-3 0 9998 2 64878 97.4554 118.3285 0008741 240.5503 119.4863 15.25257730 78077 GEOSCAN 6 (RS92S6) 1 64879U 25155D 26151.17700331 .00014316 00000+0 49796-3 0 9991 2 64879 97.4546 119.6685 0006108 225.9026 134.1712 15.29802277 78162 GEOSCAN 1 (RS92S1) 1 64880U 25155E 26151.18592264 .00016868 00000+0 57593-3 0 9996 2 64880 97.4543 119.8110 0006047 225.5899 134.4848 15.30370691 78178 239ALFEROV (RS61S) 1 64881U 25155F 26151.17924771 .00021001 00000+0 67145-3 0 9997 2 64881 97.4545 120.3100 0005565 221.6048 138.4771 15.32447048 78200 GEOSCAN 2 (RS92S2) 1 64890U 25155Q 26151.18262337 .00015853 00000+0 53700-3 0 9991 2 64890 97.4542 119.9534 0005818 207.9509 152.1420 15.30643819 78185 GEOSCAN 5 (RS92S5) 1 64891U 25155R 26151.10651160 .00017951 00000+0 56909-3 0 9995 2 64891 97.4536 120.3677 0004265 226.6889 133.3997 15.32757751 78203 GEOSCAN 4 (RS92S4) 1 64892U 25155S 26151.15764166 .00020683 00000+0 65205-3 0 9997 2 64892 97.4539 120.4628 0004302 227.0820 133.0061 15.32906535 78212 GEOSCAN 3 (RS92S3) 1 64893U 25155T 26151.17978361 .00025960 00000+0 77058-3 0 9996 2 64893 97.4530 120.8672 0004136 223.7180 136.3736 15.34775019 78245 INNOSAT 3 (RS92S0) 1 64894U 25155U 26151.19439330 .00053530 00000+0 12283-2 0 9999 2 64894 97.4481 122.3005 0003086 201.8480 158.2636 15.42542732 78347 KNACKSAT-2 1 67683U 98067XZ 26150.85297455 .00050677 00000+0 65668-3 0 9997 2 67683 51.6302 21.5644 0011151 139.9826 220.1990 15.58292004 17577